Location: Krasnoyarskiy Pitomnik
(51.1333°N, 71.6167°E)
Time: 10:59:28
(UTC+00:00)

Altair - Pass Details

Date: 15 April 2024
Orbit: 1502 x 1682 km, 47.2° (Epoch: 23 May)

Event Time Altitude Azimuth Distance (km) Brightness Sun altitude
Rises 19:45:19 0° 278° (W) 4,831 10.1 -28.3°
Reaches altitude 10° 19:48:31 10° 275° (W) 3,820 9.5 -28.2°
Maximum altitude 19:57:57 61° 199° (SSW) 1,738 7.4 -27.9°
Drops below altitude 10° 20:07:02 10° 122° (ESE) 3,684 9.3 -27.6°
Sets 20:10:04 0° 119° (ESE) 4,650 9.9 -27.5°
